Wind_Speed
81 81 82 83 83 82 83 83 81 80 79 79 76 75 73 72 71 71 71 71 72 73 74 76 75 76 71 65 62 60 54 50 41 34 32 28 24 26 26 25 26 29 29 29 31 33 33 33 34 37 41 40 32 32
80 80 81 81 79 81 81 84 82 81 81 82 80 79 79 78 78 79 78 76 76 77 76 74 72 67 65 60 59 53 51 43 36 31 29 26 22 24 23 26 25 28 30 28 33 35 35 36 39 42 43 46 44 44
75 77 78 77 77 78 77 78 80 80 82 81 80 80 80 80 79 78 77 78 77 78 71 66 66 64 59 58 54 47 44 36 32 26 25 24 21 22 22 23 21 25 29 31 36 36 38 39 42 43 46 45 48 50
65 69 73 75 74 74 75 78 78 77 81 79 76 76 76 77 77 76 74 71 69 67 66 62 61 57 55 54 46 42 38 32 27 24 24 23 19 19 20 20 22 25 30 33 36 39 41 42 44 47 48 47 47 44
56 58 61 66 67 69 74 75 77 77 75 66 75 73 72 72 72 71 67 67 67 63 58 56 55 54 52 45 40 37 33 27 24 23 22 19 17 17 18 21 23 26 28 32 36 41 43 46 47 49 51 51 53 56
50 53 54 56 58 61 65 69 75 72 65 59 71 72 71 68 66 63 62 62 60 55 54 54 52 51 45 38 37 32 27 24 22 20 18 15 15 17 18 19 22 23 27 35 35 34 35 43 49 51 53 54 56 53
46 48 50 52 53 56 60 62 62 60 56 59 64 65 63 64 64 59 57 55 52 52 49 48 49 43 36 35 32 27 24 21 18 16 14 14 16 17 17 17 19 21 24 29 35 38 42 42 47 51 54 55 55 51
40 42 45 47 50 52 52 52 51 49 47 50 52 54 55 56 54 55 50 47 47 44 45 44 40 34 32 30 28 24 22 18 16 14 13 14 16 16 15 18 20 24 28 30 31 35 40 44 48 49 51 54 55 56
34 36 38 40 42 42 43 43 44 42 43 44 46 46 45 45 48 43 41 41 41 42 39 35 32 29 29 26 25 22 18 16 15 15 14 15 15 17 17 19 22 26 28 29 31 33 34 40 44 47 48 48 49 49
30 32 33 34 35 36 38 37 37 39 40 41 42 42 43 41 37 38 39 38 38 32 32 29 27 26 25 24 22 20 17 14 15 15 15 15 17 17 18 21 24 26 27 29 30 30 31 35 40 43 45 46 45 44
27 30 32 32 31 32 33 36 36 36 37 37 38 37 35 35 35 34 33 31 29 30 27 25 24 24 23 21 19 19 18 16 15 16 16 16 17 19 22 24 26 27 29 30 31 32 34 37 40 42 45 47 45 46
26 28 29 31 33 34 34 34 35 34 32 29 29 32 32 31 31 30 29 25 27 25 25 24 22 21 21 20 20 18 16 13 13 15 17 19 22 25 24 24 26 28 30 31 32 34 34 36 37 41 42 43 43 43
26 28 29 29 29 29 28 24 22 22 24 26 27 27 28 28 29 28 27 28 26 25 22 20 18 18 18 18 17 16 15 14 15 16 18 19 22 24 25 26 26 27 30 31 32 34 36 38 39 41 43 44 44 43
24 24 24 23 21 21 22 23 24 25 26 28 30 30 30 31 30 27 26 26 23 21 18 17 17 16 16 16 16 15 15 15 15 17 19 20 22 24 25 26 28 28 29 31 33 34 36 38 40 42 43 44 44 45
25 24 25 25 25 25 26 27 29 30 29 29 30 30 28 22 24 27 25 22 20 19 18 18 17 16 16 15 15 15 16 16 16 17 20 21 23 24 27 29 30 30 31 32 33 34 35 37 40 42 44 46 46 46
29 29 29 31 32 33 34 33 32 30 29 25 24 25 28 29 25 23 21 21 19 20 19 16 14 15 14 15 15 15 16 16 17 18 19 21 22 23 25 28 30 31 31 32 33 33 35 37 38 39 42 44 46 47
36 35 34 34 33 30 28 29 30 30 33 33 31 28 26 25 24 21 21 20 18 15 13 11 11 13 13 13 13 12 13 14 15 17 18 21 22 25 25 26 28 29 30 31 32 35 36 36 36 38 39 41 42 43
36 37 34 35 36 35 36 35 35 33 31 29 27 25 23 21 21 20 20 16 13 10 9 8 8 11 11 11 12 13 13 15 16 17 18 20 20 23 26 27 29 30 30 31 33 34 35 37 37 38 39 39 40 41
37 39 38 38 39 38 34 33 32 31 30 30 28 26 26 24 22 19 16 14 11 10 8 7 7 6 7 8 10 11 12 14 15 16 17 19 21 23 25 27 29 31 32 33 35 35 37 38 39 41 42 42 43 45
38 38 39 39 39 39 38 36 35 34 34 32 30 27 25 24 22 19 16 14 11 8 6 4 4 6 7 9 11 12 14 16 18 20 21 22 24 27 29 30 31 33 34 36 37 39 40 41 41 42 43 44 45 46
34 35 37 37 38 39 39 38 37 34 33 30 27 24 22 21 19 16 13 9 6 2 2 5 8 10 12 13 16 18 20 22 24 26 28 28 30 30 31 33 34 35 37 39 41 42 43 44 45 45 46 46 47 47
38 37 37 38 39 38 36 34 32 29 26 24 22 18 15 12 10 7 3 3 3 4 4 5 6 8 10 11 13 16 18 21 24 26 28 30 33 34 35 36 38 39 40 41 41 42 42 43 43 44 45 46 47 48
36 35 34 34 33 31 29 28 25 23 21 19 17 14 10 6 3 2 2 4 6 9 11 13 14 15 16 17 17 18 18 19 20 23 25 28 30 32 34 36 38 39 41 42 42 43 44 44 44 44 44 44 44 45
30 31 31 30 28 28 25 24 22 20 17 14 11 8 7 6 5 4 5 8 10 11 12 12 12 14 16 17 18 19 20 20 22 23 24 25 26 29 31 33 35 37 39 40 41 42 42 43 43 43 43 43 43 43
30 31 30 29 28 27 23 20 18 16 14 13 11 8 6 5 7 8 10 12 14 16 17 19 20 20 18 18 19 20 21 21 21 22 23 24 25 25 26 27 29 31 33 35 37 38 40 40 41 41 41 41 41 41
31 31 31 29 28 24 21 19 16 14 12 11 11 9 8 10 11 12 13 15 17 19 21 23 24 24 23 21 21 20 20 21 22 22 23 23 24 24 24 25 26 28 30 32 33 34 35 36 37 37 38 38 38 38
27 26 25 23 22 20 19 17 15 14 13 11 10 11 12 14 15 16 18 19 20 21 23 25 26 27 28 27 26 24 23 22 22 22 22 23 23 23 24 25 26 27 28 29 29 30 30 30 30 31 32 32 33 34
23 22 22 21 20 18 16 14 12 10 9 9 10 10 12 13 15 17 19 20 22 24 26 27 29 29 29 29 29 28 27 26 24 24 24 24 24 24 24 24 25 26 26 26 26 26 27 27 27 27 28 29 30 30
20 19 18 17 15 13 12 11 10 9 9 9 10 12 13 14 16 18 21 22 24 26 28 29 30 31 31 32 31 30 28 27 26 25 24 25 25 24 24 24 25 25 24 24 24 24 24 24 24 24 25 25 26 27
13 12 11 10 9 8 6 6 6 7 8 10 11 13 16 17 19 21 22 24 25 27 29 31 31 32 33 34 33 31 29 28 27 26 24 25 25 24 23 23 23 23 23 23 24 24 24 24 24 25 25 26 27 27
4 4 3 3 3 4 5 7 9 10 12 14 15 17 19 20 21 24 24 24 26 28 30 32 34 33 33 34 34 32 31 29 28 26 25 25 25 25 24 23 22 22 22 23 24 24 25 26 26 27 27 27 28 29
3 4 5 7 8 10 10 11 13 15 16 19 21 24 25 26 27 27 28 28 29 29 30 31 34 35 34 34 34 33 32 30 28 27 26 26 26 26 25 24 23 23 24 24 24 24 24 25 26 27 28 29 29 30
11 11 11 11 12 15 17 17 19 20 22 24 25 27 29 30 32 33 31 32 32 31 30 29 31 34 35 34 34 32 31 29 28 27 26 26 27 26 25 24 24 24 25 25 25 25 25 26 26 26 27 28 29 29
Wind_Direction
244 244 244 244 245 244 246 248 249 252 254 256 258 260 262 265 268 271 274 276 278 280 280 281 284 287 288 291 292 291 291 287 285 281 277 275 268 260 251 240 230 228 219 205 200 202 197 194 191 189 194 195 192 207
245 245 245 245 244 245 243 246 248 249 250 252 255 257 259 261 263 266 267 270 272 274 275 280 282 284 288 289 288 288 283 283 279 273 275 273 260 259 250 242 235 226 221 206 202 202 198 192 188 192 197 199 198 207
243 244 245 245 245 245 246 247 247 248 250 251 252 255 257 260 262 263 265 267 270 273 276 278 282 283 285 284 283 281 278 278 271 272 271 267 256 253 247 242 233 227 220 207 204 201 194 192 190 194 198 201 206 214
239 240 241 243 243 243 244 246 247 247 247 250 253 254 256 258 260 262 263 266 269 272 275 278 278 281 281 279 280 275 274 269 266 268 266 261 254 243 239 237 230 221 218 211 206 202 198 196 192 193 199 203 209 215
236 236 236 238 239 240 242 244 246 246 247 246 251 253 255 256 258 260 263 266 268 270 273 275 276 277 274 275 273 268 265 262 264 264 261 257 251 238 232 229 225 218 212 206 211 209 200 198 194 197 199 200 209 213
231 231 231 232 233 235 237 239 241 245 243 245 248 249 252 254 257 260 262 263 265 269 271 272 272 270 271 271 264 262 259 257 261 262 260 256 241 229 226 226 222 219 207 208 213 213 214 208 202 200 202 205 212 214
227 226 226 225 227 229 231 234 237 240 240 239 243 246 248 251 253 255 256 260 263 264 265 266 264 264 265 261 259 255 251 253 256 252 253 245 231 224 222 226 222 216 208 209 210 212 208 211 210 209 205 208 215 219
220 221 221 221 222 225 228 230 233 235 235 235 236 239 241 243 247 250 252 254 254 257 257 256 259 259 255 252 251 248 246 249 253 247 243 236 225 215 217 218 212 202 199 204 209 210 208 204 212 217 214 213 217 220
212 214 215 217 218 220 223 226 228 227 228 227 229 232 234 236 237 240 245 246 245 245 248 250 250 248 245 243 242 240 242 246 246 238 233 224 220 214 206 209 209 206 201 201 204 206 206 206 212 214 220 222 224 228
202 203 205 208 209 211 214 216 217 219 220 221 223 224 226 229 230 231 233 235 238 240 240 240 238 236 236 236 235 236 235 236 235 230 225 222 213 206 203 201 208 208 202 202 205 206 206 210 215 218 220 224 227 228
189 191 195 198 200 202 203 206 209 210 213 214 216 218 220 220 222 224 227 229 228 228 229 227 225 225 230 231 232 233 233 231 227 227 217 216 209 201 200 202 207 209 205 201 204 204 208 212 214 216 218 223 226 227
180 182 184 186 190 194 197 200 203 205 206 204 204 206 208 210 212 215 216 214 215 217 216 217 217 218 224 228 229 232 238 236 232 228 218 211 204 205 202 203 206 209 210 206 205 207 208 212 217 221 224 228 230 231
170 174 179 184 186 189 193 193 192 191 190 192 195 194 196 197 200 204 201 202 204 204 207 210 213 219 226 232 233 232 233 233 230 228 223 215 213 209 205 207 210 212 216 214 211 211 211 213 215 220 224 227 230 234
160 164 167 170 171 171 170 170 170 173 180 182 180 182 187 190 192 192 189 193 192 197 202 204 206 208 212 218 224 231 232 231 230 225 222 219 216 214 210 209 212 213 220 223 219 217 218 219 218 221 224 228 231 234
144 147 149 152 153 153 154 157 164 168 170 174 179 183 181 177 172 177 180 182 188 190 193 192 191 198 206 211 215 217 219 219 217 217 219 217 219 219 218 219 218 218 220 224 226 226 225 226 226 227 228 230 233 236
138 139 141 143 146 151 155 159 161 163 163 163 158 154 161 167 167 167 171 176 182 179 176 181 190 198 207 213 217 217 219 223 224 221 221 225 226 227 227 227 228 228 227 228 230 234 235 235 234 235 237 237 237 238
134 136 140 144 147 147 145 145 140 138 145 151 154 157 159 157 160 165 168 168 163 160 167 181 198 204 205 212 216 218 220 227 231 232 231 231 233 235 236 236 235 238 243 245 242 238 238 241 243 244 245 245 246 246
134 131 132 132 130 131 134 138 145 147 143 144 145 144 142 146 155 156 153 150 151 153 161 183 203 209 220 221 227 229 231 234 234 235 237 237 239 243 245 249 250 249 249 248 246 245 247 247 248 249 249 249 249 249
129 130 132 135 134 133 134 134 133 134 133 131 133 137 140 139 137 136 135 140 145 157 173 185 192 209 226 233 240 242 242 244 245 242 241 244 248 250 248 248 250 252 253 254 254 254 254 254 254 254 255 253 252 251
132 133 131 128 127 126 125 125 128 130 130 131 130 129 127 128 126 128 131 133 136 145 155 175 205 225 239 247 253 255 254 255 256 257 254 251 250 251 251 250 249 250 249 249 251 253 254 255 255 254 253 253 252 252
129 126 125 126 122 121 122 124 126 127 128 129 130 128 126 124 125 127 128 128 129 149 269 276 271 269 267 266 265 265 264 263 262 263 264 263 262 260 260 259 258 257 257 257 256 254 254 254 254 255 255 255 255 255
124 126 126 125 125 127 129 131 133 134 132 129 125 122 118 114 106 94 59 20 356 343 327 318 311 306 296 289 282 274 269 266 264 262 263 265 265 266 266 266 266 265 264 263 262 261 260 260 260 259 259 259 258 258
130 133 134 133 136 137 131 129 127 127 123 122 119 116 117 111 94 54 56 15 352 339 332 328 323 317 313 306 300 294 286 281 276 272 269 267 267 267 268 269 270 270 271 271 271 271 271 271 271 271 270 270 269 268
130 130 128 124 124 118 116 116 115 118 120 124 126 126 115 97 63 40 6 358 336 338 335 330 323 317 314 311 307 303 299 295 290 287 281 276 271 268 268 267 268 269 270 271 272 274 275 275 275 274 274 274 273 273
121 117 116 114 112 113 118 122 126 125 120 115 109 106 87 51 33 18 14 5 360 353 351 344 340 338 333 324 319 314 307 302 299 295 291 288 287 283 278 274 271 271 271 271 271 271 273 274 275 276 276 276 277 277
110 110 113 115 117 119 119 116 112 108 106 103 89 71 54 39 26 16 11 2 354 349 344 341 340 337 335 330 326 321 315 309 305 302 299 297 295 293 287 282 278 277 276 275 275 275 275 274 274 274 275 275 275 275
114 115 117 119 121 120 115 110 105 98 88 77 64 48 36 22 13 6 355 352 349 346 342 338 337 337 335 333 333 329 324 319 313 308 303 300 300 296 292 288 287 286 285 283 282 281 280 279 277 276 274 273 273 273
115 116 115 114 112 108 105 100 95 86 73 57 43 32 21 10 2 353 348 347 345 343 339 337 336 335 336 334 332 331 326 322 319 316 313 309 306 302 298 295 293 292 290 287 285 284 283 281 281 280 279 279 278 277
112 112 111 109 108 105 100 93 82 65 46 28 16 8 1 355 353 348 345 344 344 342 341 338 335 334 332 332 332 330 326 323 322 318 314 312 311 308 304 302 299 297 294 292 289 288 286 285 284 283 282 282 281 281
109 105 103 98 94 87 72 57 38 24 17 14 6 358 350 347 346 343 342 342 342 340 340 339 335 332 330 330 331 329 327 325 323 321 315 314 313 311 309 304 302 300 297 296 294 292 291 289 288 287 287 287 287 286
104 100 94 73 58 37 16 360 351 347 347 347 345 346 345 345 340 340 338 336 336 337 336 336 333 330 329 329 329 327 326 324 323 322 318 316 315 315 314 310 306 302 299 296 294 294 293 292 290 289 289 290 290 289
273 288 303 313 317 321 324 331 331 330 334 332 332 335 336 336 336 334 335 336 332 327 327 328 328 326 328 328 326 325 324 323 322 321 320 317 317 316 314 312 309 306 303 300 298 296 295 294 293 293 293 294 294 293
268 273 277 283 288 293 303 311 316 321 322 321 323 325 327 328 328 328 329 329 330 329 325 322 323 324 323 323 323 322 321 321 320 319 319 317 316 316 314 312 310 307 304 302 301 301 300 299 299 298 298 297 296 296
Height
10059 10068 10078 10087 10096 10109 10117 10124 10133 10141 10147 10152 10159 10166 10172 10177 10180 10182 10184 10187 10188 10188 10192 10190 10191 10188 10184 10183 10179 10175 10172 10167 10166 10166 10164 10164 10164 10162 10164 10166 10168 10170 10173 10177 10181 10187 10195 10201 10208 10216 10221 10229 10241 10243
10036 10046 10056 10064 10076 10086 10099 10104 10113 10123 10132 10136 10143 10151 10158 10163 10167 10169 10170 10173 10175 10175 10178 10178 10176 10174 10171 10169 10165 10163 10158 10157 10157 10156 10156 10156 10155 10154 10156 10157 10161 10165 10169 10172 10176 10181 10188 10196 10203 10209 10216 10222 10228 10231
10013 10024 10033 10044 10055 10066 10077 10086 10092 10104 10110 10117 10126 10134 10140 10145 10149 10152 10155 10158 10159 10160 10162 10164 10162 10159 10159 10154 10152 10150 10148 10148 10147 10148 10148 10147 10147 10147 10149 10151 10156 10160 10164 10167 10169 10176 10182 10190 10197 10204 10209 10216 10220 10223
9992 10002 10012 10021 10033 10045 10056 10065 10072 10083 10089 10099 10106 10115 10122 10127 10131 10134 10138 10143 10144 10146 10148 10151 10147 10147 10144 10140 10140 10139 10139 10138 10139 10140 10139 10139 10140 10141 10142 10144 10148 10152 10156 10160 10164 10168 10174 10182 10189 10196 10203 10209 10214 10221
9974 9983 9994 10002 10013 10026 10036 10045 10053 10057 10069 10087 10091 10097 10104 10109 10113 10116 10123 10128 10129 10131 10134 10134 10133 10131 10129 10129 10130 10129 10128 10131 10132 10132 10132 10132 10133 10134 10135 10136 10140 10145 10150 10156 10159 10160 10166 10173 10181 10188 10195 10201 10205 10209
9958 9967 9977 9987 9998 10008 10017 10027 10032 10038 10054 10072 10074 10079 10085 10091 10097 10102 10108 10111 10114 10119 10120 10119 10119 10118 10118 10119 10118 10119 10121 10124 10126 10126 10126 10127 10127 10128 10128 10131 10134 10139 10145 10149 10154 10161 10165 10168 10175 10182 10187 10194 10197 10205
9945 9954 9964 9974 9983 9992 10000 10008 10017 10028 10039 10052 10056 10062 10070 10076 10080 10087 10092 10098 10102 10103 10105 10106 10105 10107 10109 10108 10110 10112 10115 10118 10119 10119 10119 10120 10121 10121 10124 10127 10130 10134 10138 10143 10147 10151 10157 10165 10171 10177 10182 10187 10191 10197
9936 9944 9953 9962 9971 9980 9989 9998 10007 10016 10027 10035 10042 10048 10054 10061 10069 10072 10079 10085 10088 10090 10092 10093 10096 10098 10099 10101 10103 10106 10109 10112 10113 10113 10113 10114 10116 10117 10120 10123 10125 10128 10131 10136 10141 10145 10151 10158 10164 10171 10176 10180 10186 10189
9928 9936 9945 9954 9963 9972 9981 9989 9998 10007 10014 10022 10029 10036 10044 10051 10054 10063 10069 10073 10075 10078 10080 10085 10087 10090 10091 10094 10096 10100 10103 10105 10106 10106 10108 10109 10112 10114 10116 10119 10122 10124 10127 10131 10135 10140 10147 10153 10158 10164 10169 10174 10179 10184
9922 9931 9939 9947 9956 9965 9973 9982 9990 9997 10004 10011 10019 10026 10032 10039 10049 10053 10057 10061 10066 10071 10073 10077 10081 10082 10085 10088 10092 10095 10097 10099 10101 10102 10104 10105 10107 10111 10114 10115 10117 10121 10124 10127 10131 10137 10143 10148 10152 10157 10162 10166 10171 10177
9919 9927 9934 9943 9952 9959 9967 9974 9981 9989 9995 10004 10011 10019 10028 10034 10039 10045 10050 10055 10061 10063 10068 10072 10074 10077 10081 10084 10087 10089 10091 10093 10096 10098 10100 10102 10105 10107 10109 10111 10114 10117 10120 10124 10128 10132 10136 10141 10145 10150 10155 10159 10164 10169
9918 9925 9933 9941 9948 9955 9962 9970 9976 9985 9993 10002 10009 10014 10021 10028 10034 10040 10045 10051 10055 10059 10063 10066 10070 10074 10076 10079 10081 10084 10087 10090 10092 10094 10096 10098 10100 10101 10104 10107 10110 10113 10116 10120 10123 10127 10131 10135 10140 10144 10148 10153 10157 10161
9920 9927 9933 9940 9948 9955 9963 9971 9980 9987 9994 9999 10005 10012 10018 10025 10030 10036 10041 10045 10050 10055 10059 10064 10068 10071 10073 10076 10078 10080 10083 10085 10087 10090 10092 10094 10095 10098 10100 10102 10106 10109 10112 10115 10118 10122 10125 10129 10133 10136 10140 10144 10148 10152
9925 9931 9937 9944 9952 9959 9966 9973 9980 9986 9991 9996 10003 10010 10016 10021 10028 10035 10040 10044 10049 10053 10058 10062 10066 10068 10070 10072 10074 10076 10079 10081 10083 10085 10088 10089 10092 10094 10096 10098 10101 10104 10107 10110 10113 10116 10119 10122 10125 10128 10131 10134 10138 10141
9930 9936 9942 9949 9955 9962 9968 9974 9979 9985 9992 9999 10004 10010 10017 10026 10031 10034 10039 10044 10049 10053 10057 10060 10062 10065 10067 10069 10071 10073 10075 10077 10079 10080 10082 10085 10087 10090 10092 10094 10096 10098 10100 10103 10106 10109 10112 10114 10117 10119 10122 10125 10127 10131
9936 9942 9947 9953 9959 9964 9969 9975 9982 9989 9996 10003 10011 10016 10021 10025 10031 10037 10041 10046 10050 10053 10056 10059 10061 10064 10066 10067 10069 10071 10072 10074 10075 10077 10079 10081 10083 10085 10088 10090 10091 10092 10094 10097 10099 10101 10104 10106 10109 10111 10114 10116 10118 10120
9942 9948 9953 9958 9963 9970 9976 9983 9990 9996 10002 10007 10012 10019 10024 10029 10034 10039 10044 10048 10051 10054 10057 10060 10062 10064 10065 10066 10068 10069 10070 10071 10072 10074 10075 10076 10078 10079 10081 10083 10085 10087 10089 10090 10092 10093 10094 10097 10099 10101 10103 10106 10108 10109
9947 9952 9959 9965 9971 9978 9983 9989 9995 10001 10007 10013 10019 10025 10029 10034 10040 10044 10048 10051 10054 10057 10059 10061 10063 10064 10065 10066 10067 10067 10068 10069 10069 10070 10070 10071 10072 10074 10075 10076 10077 10080 10081 10082 10083 10084 10085 10087 10089 10090 10092 10094 10095 10097
9958 9961 9967 9972 9977 9984 9992 9997 10003 10009 10014 10020 10025 10031 10035 10039 10043 10047 10050 10053 10056 10058 10060 10061 10062 10063 10064 10065 10065 10065 10065 10065 10065 10065 10066 10066 10067 10067 10068 10068 10069 10070 10071 10071 10072 10073 10074 10075 10076 10077 10078 10079 10081 10081
9968 9971 9976 9983 9988 9993 9999 10005 10011 10016 10021 10027 10032 10036 10040 10044 10047 10050 10053 10055 10058 10060 10061 10062 10063 10063 10063 10063 10062 10061 10061 10060 10059 10059 10059 10059 10059 10058 10058 10059 10059 10059 10060 10060 10060 10060 10060 10060 10061 10062 10062 10063 10064 10065
9982 9985 9989 9994 9998 10002 10007 10013 10019 10025 10029 10033 10037 10041 10044 10048 10050 10053 10056 10058 10060 10061 10061 10062 10062 10061 10060 10059 10058 10057 10056 10055 10053 10052 10050 10050 10049 10049 10049 10048 10048 10048 10047 10047 10047 10047 10047 10047 10047 10047 10048 10048 10048 10049
9992 9998 10002 10005 10009 10013 10018 10022 10026 10032 10036 10039 10043 10046 10049 10051 10054 10056 10057 10058 10059 10059 10059 10059 10058 10057 10056 10054 10053 10051 10049 10048 10046 10044 10043 10041 10039 10037 10036 10035 10034 10034 10033 10033 10033 10032 10032 10032 10031 10032 10032 10032 10033 10033
10002 10006 10010 10013 10017 10022 10025 10029 10033 10037 10041 10044 10047 10050 10052 10055 10056 10057 10058 10059 10058 10057 10056 10054 10052 10050 10049 10047 10045 10043 10042 10040 10038 10036 10034 10032 10030 10028 10026 10024 10023 10021 10020 10019 10018 10017 10016 10016 10016 10016 10017 10017 10017 10018
10012 10013 10016 10020 10024 10027 10031 10035 10039 10042 10046 10049 10051 10053 10055 10057 10057 10057 10057 10057 10056 10054 10052 10051 10049 10046 10044 10041 10038 10036 10033 10031 10028 10026 10024 10022 10020 10018 10016 10014 10012 10011 10009 10007 10005 10004 10003 10002 10001 10001 10000 10000 10000 10000
10019 10020 10024 10027 10030 10034 10039 10043 10046 10049 10051 10052 10054 10055 10057 10057 10057 10056 10055 10054 10052 10050 10047 10045 10042 10040 10037 10035 10032 10029 10026 10023 10021 10018 10015 10013 10010 10008 10005 10003 10002 10000 9998 9996 9994 9992 9990 9989 9988 9987 9986 9985 9985 9985
10026 10029 10032 10036 10039 10044 10047 10049 10051 10052 10054 10055 10056 10057 10058 10057 10056 10055 10053 10052 10050 10047 10045 10041 10038 10035 10032 10029 10026 10022 10019 10015 10012 10009 10006 10003 10001 9998 9996 9993 9991 9989 9987 9984 9982 9981 9979 9978 9976 9975 9974 9973 9972 9971
10037 10039 10042 10044 10047 10050 10051 10053 10054 10056 10056 10057 10058 10058 10057 10056 10054 10053 10051 10049 10047 10044 10041 10038 10034 10031 10027 10023 10019 10015 10012 10008 10004 10001 9998 9995 9992 9989 9986 9984 9981 9978 9976 9973 9971 9969 9968 9966 9964 9963 9962 9961 9960 9959
10045 10046 10048 10050 10051 10053 10055 10056 10057 10058 10058 10058 10058 10057 10056 10055 10054 10052 10050 10047 10044 10041 10038 10034 10030 10026 10022 10018 10014 10010 10005 10001 9997 9993 9990 9986 9983 9980 9977 9974 9972 9969 9966 9963 9961 9959 9957 9956 9954 9953 9951 9950 9949 9947
10050 10051 10052 10053 10055 10056 10057 10057 10058 10058 10058 10058 10057 10056 10054 10053 10051 10049 10047 10044 10041 10038 10034 10030 10026 10021 10017 10013 10009 10004 10000 9995 9991 9987 9983 9979 9976 9973 9969 9966 9963 9960 9957 9955 9953 9951 9949 9947 9945 9944 9942 9941 9939 9937
10054 10055 10056 10056 10056 10057 10057 10057 10057 10057 10056 10056 10055 10053 10051 10049 10047 10045 10042 10040 10036 10033 10029 10025 10021 10017 10012 10007 10003 9998 9993 9989 9984 9980 9976 9972 9968 9965 9962 9958 9955 9952 9950 9947 9945 9942 9940 9938 9936 9934 9933 9931 9929 9927
10055 10056 10056 10056 10056 10056 10056 10056 10055 10054 10053 10052 10051 10049 10047 10045 10043 10041 10038 10035 10032 10028 10024 10020 10015 10011 10006 10001 9996 9992 9987 9982 9978 9973 9969 9965 9961 9958 9954 9951 9948 9945 9943 9940 9937 9934 9932 9929 9927 9925 9923 9921 9919 9916
10054 10054 10053 10053 10053 10053 10053 10053 10052 10051 10050 10048 10046 10044 10042 10040 10038 10036 10033 10030 10026 10023 10019 10015 10009 10004 10000 9995 9990 9986 9981 9976 9971 9967 9962 9958 9955 9951 9948 9944 9941 9938 9935 9932 9929 9927 9924 9921 9918 9916 9913 9911 9908 9906
10050 10050 10051 10051 10051 10050 10048 10048 10047 10046 10044 10042 10041 10039 10037 10034 10031 10028 10026 10023 10019 10016 10012 10008 10004 9999 9994 9990 9985 9980 9975 9970 9965 9960 9956 9952 9948 9944 9941 9937 9934 9931 9927 9924 9922 9919 9916 9913 9910 9907 9904 9902 9899 9896